RH
41 41 42 42 43 43 43 42 43 42 42 40 38 35 33 29 22 15 13 14 13 13 13 12 12 12 12 11 11 11 11 11 11 10 9 8 9 8 8 9 9 10 11 13 17 18 18 19 19 16 14 12 11 10 10 11 11 10 11 12 11 10 9 8 8 10 14 14 12 13 13 14 19 22 23 25 24 26 27 28 31 32 35 35 36 35 33 36
40 40 40 41 41 42 43 43 44 43 43 42 40 38 34 31 27 19 15 14 14 13 13 13 12 12 12 12 11 11 11 10 10 10 9 9 9 9 9 8 9 10 10 11 16 19 19 19 18 16 14 12 11 11 11 11 11 11 13 13 11 10 9 8 9 11 13 13 13 14 15 14 18 21 23 29 26 21 24 26 30 34 35 37 37 37 37 37
38 39 40 40 41 42 42 43 43 43 43 43 43 41 36 32 31 25 18 15 15 14 14 13 13 12 12 12 12 11 11 11 10 10 10 10 9 9 9 8 9 9 9 11 15 18 18 18 18 16 13 12 11 11 11 12 11 11 14 13 10 10 10 8 9 12 12 13 14 13 15 15 16 18 20 31 31 25 28 26 27 33 35 37 36 36 37 37
35 37 38 39 40 40 42 44 44 44 44 44 44 43 39 35 33 29 21 16 16 15 14 14 13 13 13 12 12 12 12 12 12 11 10 10 9 9 9 8 8 8 8 10 14 17 18 18 18 17 13 11 12 10 10 12 11 13 13 10 11 10 10 9 9 13 13 13 14 13 15 15 16 17 17 29 34 32 35 31 28 31 34 36 35 34 35 35
34 33 34 35 36 37 39 42 44 45 45 46 46 43 40 38 35 29 22 18 17 17 16 15 14 14 13 13 13 13 13 14 12 11 11 10 10 9 9 8 8 7 7 9 12 16 18 19 18 17 14 12 12 10 10 11 11 14 12 9 12 10 9 11 11 15 15 15 15 15 15 14 15 17 19 28 32 33 35 32 29 29 31 32 33 34 34 34
34 33 33 33 34 35 35 39 41 42 43 44 45 43 41 39 34 27 21 19 18 17 17 16 15 14 14 13 13 13 14 15 14 14 14 12 11 9 9 8 8 7 7 8 11 15 17 18 18 17 15 13 12 11 11 11 10 12 11 10 11 9 10 13 13 16 18 16 16 16 15 14 15 15 21 26 26 27 27 26 28 28 29 31 33 35 33 33
34 34 33 33 33 33 34 37 38 39 42 42 42 42 40 38 34 26 20 18 16 15 16 15 15 14 14 14 14 15 16 16 15 18 17 14 12 10 9 8 9 8 7 9 11 14 16 17 17 16 14 13 12 11 12 12 10 9 11 12 10 9 11 12 15 18 19 17 16 16 15 14 14 14 19 20 19 21 20 24 29 28 30 31 33 35 33 33
34 34 34 33 33 32 33 34 35 37 39 41 42 41 40 37 35 29 20 17 16 15 14 14 13 13 13 14 17 18 17 16 15 16 16 16 14 11 9 8 9 9 8 9 10 12 14 16 16 15 15 13 12 11 12 13 10 8 10 12 11 9 11 12 16 19 18 17 16 15 14 14 14 14 16 17 20 21 21 28 30 29 31 32 34 34 32 33
33 33 34 34 33 31 32 34 34 35 37 40 42 43 41 38 37 32 21 18 18 16 15 14 12 13 12 12 17 18 16 17 15 14 14 14 14 12 9 8 9 10 9 10 10 10 13 15 16 15 15 14 12 12 12 12 11 10 9 11 11 10 12 13 17 19 18 17 16 15 14 14 14 14 15 17 23 25 25 30 29 30 32 32 34 33 30 32
32 32 33 33 33 30 30 33 34 36 38 39 40 42 42 38 37 31 23 21 20 18 17 15 14 14 14 15 17 16 16 18 16 16 15 14 16 15 12 9 10 11 11 11 10 10 12 14 15 16 15 15 13 12 13 11 12 13 10 11 11 12 14 15 17 18 18 16 15 15 15 14 14 15 15 17 24 27 28 30 29 31 32 33 34 31 30 32
33 33 32 31 31 31 31 32 34 36 38 40 40 41 41 39 36 28 22 23 21 19 18 16 16 16 18 20 19 16 17 18 17 17 17 17 18 17 15 13 11 12 11 11 10 10 11 12 14 15 15 16 14 13 13 11 12 14 12 12 11 12 14 15 16 17 17 16 15 15 15 15 15 16 16 19 26 28 29 29 28 31 33 33 33 31 31 32
34 33 32 31 30 32 35 35 35 36 37 40 41 41 41 38 34 26 22 23 22 21 20 18 17 17 23 27 22 18 18 19 18 18 19 20 19 18 16 15 14 14 13 12 11 10 10 11 14 15 16 17 15 15 14 11 11 13 13 13 12 12 14 14 15 16 16 15 15 14 15 15 15 16 17 21 27 27 29 31 30 32 34 33 32 32 32 31
33 33 32 31 31 34 38 38 38 37 38 42 42 42 40 37 33 26 22 22 21 22 21 20 19 23 29 29 22 18 17 18 18 19 20 21 19 18 17 16 16 17 15 13 12 11 11 12 14 15 17 18 17 17 16 13 12 13 13 12 12 13 13 15 15 16 16 15 15 14 16 17 15 16 16 18 26 27 27 32 35 34 32 32 32 33 32 31
30 31 32 31 33 37 39 41 40 38 41 44 44 42 40 37 32 25 22 21 21 23 23 22 23 31 35 27 20 18 17 17 17 18 19 20 19 18 17 15 17 18 17 15 14 14 12 12 14 15 17 19 21 19 15 15 13 12 13 11 13 14 13 15 16 16 15 14 14 14 20 21 15 17 17 16 24 26 25 30 35 34 31 30 30 32 32 31
29 30 30 31 35 38 39 42 43 42 42 44 43 41 37 35 29 22 21 21 23 23 21 24 30 36 36 27 21 19 19 18 18 18 17 19 18 17 18 17 17 20 19 16 16 15 13 13 14 16 17 19 22 19 15 16 14 13 14 12 13 14 15 15 16 16 15 15 14 14 22 21 15 18 19 17 21 24 25 27 31 35 33 28 28 31 32 33
31 30 30 31 33 37 39 42 44 44 44 44 42 38 33 29 25 21 20 21 23 22 23 30 36 37 33 27 24 21 20 21 20 19 17 17 18 17 19 19 20 23 21 17 16 14 14 13 13 16 20 20 21 19 18 17 15 14 13 14 14 13 15 16 15 16 15 15 14 15 21 20 17 19 21 20 21 21 24 23 27 36 35 28 28 31 33 34
34 33 33 33 33 36 38 42 45 45 44 43 39 34 29 26 22 21 20 21 25 26 28 33 38 38 31 25 26 25 23 23 22 20 19 18 17 18 20 21 23 25 23 18 16 14 13 13 12 17 22 24 21 19 21 20 18 15 13 18 18 12 15 15 14 17 15 14 14 14 19 19 18 20 21 23 23 21 22 20 23 31 31 27 28 30 33 35
37 38 39 37 36 37 38 41 45 46 44 41 36 29 26 25 23 25 26 26 31 35 34 36 37 36 29 24 26 26 25 26 25 22 21 19 18 19 21 24 26 26 24 19 15 14 13 13 12 16 21 23 22 21 22 21 19 18 14 20 21 14 14 14 14 16 15 15 15 14 19 20 19 21 23 25 25 24 24 21 21 24 26 28 28 29 32 34
40 42 44 42 39 39 40 42 43 45 44 40 37 31 29 30 29 32 35 34 36 36 32 34 33 28 26 26 26 25 25 27 27 25 23 21 19 19 22 26 27 26 23 19 17 14 13 15 14 16 18 21 23 22 21 21 21 19 14 18 20 14 14 15 15 17 15 15 14 16 21 21 20 23 25 27 27 26 25 24 22 22 25 28 28 28 31 35
40 43 46 45 41 41 43 43 41 43 44 42 42 39 37 35 33 35 39 38 34 28 26 29 29 24 24 27 26 24 23 24 26 27 26 22 20 20 23 27 28 26 24 21 21 17 15 18 16 15 17 21 23 20 20 23 23 19 14 15 17 13 14 16 17 17 15 16 20 23 24 23 23 24 26 27 27 26 26 26 25 23 25 27 29 31 33 36
38 39 44 45 42 42 44 44 41 40 42 44 44 42 37 33 33 36 38 36 31 27 27 29 29 26 24 25 27 24 21 21 24 26 27 24 21 22 23 26 27 28 26 23 23 20 17 18 16 14 17 22 22 19 21 22 19 17 14 15 15 14 15 17 17 16 15 18 24 24 23 24 25 26 26 26 27 26 27 28 27 26 25 26 33 38 38 37
34 32 39 44 43 44 47 45 41 39 43 45 44 42 39 35 36 39 38 35 32 30 29 30 30 29 27 26 26 24 20 19 20 23 26 25 22 24 25 26 28 29 26 24 25 23 20 19 16 13 16 22 24 22 22 21 16 15 15 16 15 14 16 17 17 16 16 20 24 22 23 26 26 26 27 27 28 28 28 29 29 27 25 26 32 37 36 36
30 29 37 43 44 48 50 46 42 43 45 46 44 43 43 41 41 42 41 37 33 32 32 31 30 30 28 26 24 24 20 18 18 19 24 24 23 27 28 28 29 29 26 25 26 25 22 18 16 15 18 24 28 24 21 20 18 16 16 17 15 15 17 18 17 17 17 21 25 25 27 29 27 27 29 29 29 28 28 30 30 29 28 29 30 32 34 36
31 32 38 44 48 53 53 47 45 47 47 46 44 44 44 45 46 46 43 37 31 30 32 31 30 29 29 26 24 23 19 17 18 18 21 22 23 29 32 31 31 29 28 26 24 23 21 19 18 19 21 24 26 24 22 21 19 18 18 17 16 15 16 18 18 18 19 24 27 27 30 35 34 34 35 32 29 28 27 29 30 31 31 32 33 33 36 38
37 40 44 48 54 57 54 47 46 49 49 47 45 43 45 47 49 49 44 39 35 32 31 31 30 29 28 28 26 22 19 17 18 18 19 20 21 29 34 33 31 30 29 26 24 22 21 21 22 23 22 21 24 26 23 20 21 22 19 17 17 16 16 20 20 19 23 26 27 27 29 37 39 38 41 39 33 28 29 30 32 33 33 34 35 36 38 40
44 47 50 54 58 60 55 47 48 53 50 48 47 45 47 48 46 47 43 40 38 33 32 30 28 26 26 28 26 21 20 18 17 18 19 19 20 27 33 33 32 30 29 27 25 23 23 24 24 24 23 23 25 26 22 19 22 24 20 17 18 17 17 20 20 20 24 26 26 25 27 38 46 43 42 44 41 35 31 33 36 37 37 36 37 39 40 41
49 53 56 59 61 60 54 49 54 56 48 45 46 46 48 45 43 47 47 44 39 32 31 30 27 25 24 25 24 20 21 19 16 18 19 19 20 25 31 33 32 30 29 29 26 24 25 26 25 24 25 25 24 25 24 20 22 26 22 17 17 17 16 19 19 19 22 25 26 23 22 33 45 47 44 44 48 46 38 36 39 39 39 39 39 41 41 41
54 58 60 62 63 59 55 56 58 52 44 43 45 47 47 43 45 50 50 48 42 31 29 29 26 27 26 25 22 18 20 20 17 18 19 19 21 25 29 32 32 31 30 28 27 26 27 26 25 25 26 26 24 26 25 20 21 27 23 19 18 17 17 18 18 19 23 26 26 23 20 27 40 48 48 44 49 52 42 37 40 40 39 40 41 42 42 41
58 62 64 64 62 59 59 61 58 48 43 44 46 46 43 44 51 54 50 47 42 34 31 29 27 27 28 26 21 18 20 22 20 19 20 21 22 25 28 31 32 32 31 28 29 32 29 24 25 27 27 26 25 27 24 18 22 26 23 21 22 20 19 19 18 20 25 25 24 24 20 24 38 49 48 45 49 52 43 37 40 39 39 41 42 43 42 41
60 63 65 64 62 62 62 61 54 46 43 43 45 44 45 52 55 56 54 47 43 41 34 30 29 28 29 27 22 19 20 24 25 23 23 23 24 26 29 31 31 32 32 28 31 36 32 26 26 28 28 28 29 28 22 19 22 23 22 24 26 23 21 21 20 22 28 27 25 28 24 24 36 46 47 48 52 51 44 39 40 40 41 42 43 45 44 43
60 65 67 66 65 64 63 57 49 45 44 45 47 49 54 60 56 55 54 45 48 51 38 33 33 29 29 27 23 21 21 25 29 27 27 27 27 28 29 32 34 37 36 30 32 37 34 29 29 28 29 33 33 28 22 20 22 22 23 26 29 29 24 23 23 24 29 29 26 30 28 24 32 44 51 53 54 52 44 40 41 41 43 45 45 46 45 44
64 67 67 66 67 65 62 56 48 48 48 49 55 59 65 67 60 56 49 43 58 65 49 39 36 32 33 29 24 23 22 27 30 29 29 29 29 30 29 31 34 39 42 34 34 39 36 30 29 29 30 32 31 28 25 23 23 23 25 28 31 32 29 27 25 24 26 29 30 31 27 28 41 51 55 57 58 55 46 42 44 44 46 48 47 48 47 46
68 67 66 66 66 66 63 57 53 52 54 59 63 65 72 72 59 52 48 45 62 71 59 47 38 36 39 33 27 25 25 29 32 32 31 29 31 30 29 32 32 36 41 36 36 41 38 34 33 31 30 29 29 30 29 26 25 26 28 29 30 32 33 31 26 24 26 32 37 35 30 39 54 58 58 61 60 56 50 48 49 49 50 51 49 49 49 48
67 64 66 65 63 67 66 61 59 58 63 73 73 72 81 76 54 47 49 52 63 68 63 55 44 38 41 37 31 27 27 32 34 33 33 31 32 30 29 33 32 34 39 37 37 38 36 38 35 31 31 30 28 31 30 25 24 26 28 28 28 29 32 31 26 25 29 35 38 37 37 45 54 58 61 65 61 56 54 53 52 54 53 53 52 50 50 50
67 63 65 64 64 69 69 65 63 64 72 80 80 81 83 71 53 51 55 59 69 72 64 57 47 39 41 41 35 28 29 37 38 36 35 32 32 31 32 33 31 33 38 39 39 37 36 37 31 27 30 29 27 29 30 26 23 24 26 28 28 27 30 31 30 31 34 37 40 42 49 57 63 63 62 63 62 59 58 57 55 56 55 53 53 51 51 52
75 71 71 68 66 68 69 71 71 70 75 80 82 85 80 66 61 64 63 64 73 74 63 53 45 41 42 42 38 31 31 39 40 39 40 36 33 33 32 32 31 33 38 41 42 39 36 37 33 29 27 25 24 26 27 25 24 24 25 28 27 27 33 34 33 35 36 40 46 47 53 64 70 72 65 60 61 59 58 59 57 56 55 53 53 52 52 53
85 84 79 72 71 74 75 79 79 74 75 79 83 84 77 69 66 67 65 66 73 71 62 56 49 43 43 42 38 34 32 38 40 40 43 40 37 36 32 31 30 30 35 39 40 38 35 37 38 30 25 23 23 25 24 22 24 25 23 25 26 29 35 33 30 34 32 36 46 45 50 60 62 68 72 64 60 59 58 58 57 56 55 54 54 54 54 54
91 92 85 78 81 86 80 77 77 74 74 79 84 82 78 73 67 64 65 68 74 72 67 67 57 45 44 42 37 33 32 39 41 40 43 41 38 38 35 34 32 29 33 37 39 37 32 35 36 27 24 24 21 25 27 24 25 25 21 22 24 28 33 30 31 34 28 32 43 41 46 55 53 60 71 66 60 61 58 57 57 57 56 55 55 55 55 55
91 90 86 83 87 89 76 69 72 72 72 77 81 82 79 74 67 66 65 66 72 75 71 70 60 51 50 42 36 34 32 39 43 43 45 44 41 40 36 36 34 31 35 38 39 37 31 34 35 26 24 26 23 26 31 29 26 25 24 24 23 25 28 28 28 29 26 32 44 46 44 49 53 60 65 63 61 62 61 61 60 59 58 58 57 57 56 56
85 84 82 83 90 87 70 62 67 66 68 75 79 80 78 72 66 66 65 62 69 76 74 69 60 58 58 48 40 36 32 37 43 43 44 46 47 45 38 36 35 33 35 36 38 37 33 36 38 30 26 28 28 28 31 33 29 27 28 26 25 26 27 29 27 26 27 29 39 48 45 45 56 61 60 61 64 64 64 63 62 61 61 61 60 59 57 56
83 83 83 85 89 84 68 63 62 59 66 75 77 78 78 73 67 65 62 60 67 74 73 68 61 58 60 55 47 39 34 36 40 42 44 45 47 46 40 39 38 34 35 35 36 38 35 35 40 36 29 30 32 31 33 36 31 29 28 23 23 27 29 32 30 28 30 28 32 39 41 50 62 61 60 64 66 66 65 63 64 64 63 62 61 59 58 57
87 89 89 87 84 78 70 65 59 57 67 76 78 78 77 73 68 63 59 60 68 74 71 66 60 54 54 55 52 45 40 39 39 43 46 46 47 47 42 41 41 36 35 33 33 36 36 36 41 40 33 35 40 37 35 37 34 31 29 25 23 25 27 29 28 29 30 29 32 33 37 59 69 60 61 67 67 67 65 63 65 64 61 61 59 58 58 58
92 93 93 87 79 76 73 66 61 62 67 74 77 75 71 68 63 58 57 62 70 76 74 67 60 55 52 50 50 49 47 48 48 47 48 50 52 51 47 44 43 38 34 32 33 35 37 41 47 48 44 43 43 37 35 36 33 31 31 29 27 26 27 26 26 28 28 28 32 29 38 65 72 60 61 66 65 65 63 60 60 59 58 59 60 60 60 59
92 95 94 86 79 79 76 67 64 64 64 67 69 68 66 63 58 57 62 70 74 76 76 70 60 55 54 49 47 48 49 54 58 56 54 55 55 54 53 50 46 40 36 35 35 34 38 47 52 52 52 50 45 40 38 37 35 35 36 33 29 30 30 30 31 32 28 29 30 27 39 63 65 57 60 63 63 65 63 60 60 59 60 62 63 64 61 59
95 95 89 82 79 80 78 73 68 63 61 64 65 65 64 60 62 67 73 79 79 76 77 73 63 57 54 50 50 51 48 52 59 60 58 56 56 57 58 55 48 42 39 40 38 36 42 53 55 52 52 50 47 45 42 38 37 40 41 36 32 32 30 30 34 35 34 37 33 30 48 66 63 59 63 63 64 66 65 65 64 61 62 64 65 65 63 61
95 87 79 75 74 75 75 73 70 65 64 66 68 68 65 65 74 81 82 84 84 78 76 74 68 61 56 54 56 56 52 53 57 58 57 56 57 58 59 56 50 46 45 44 43 42 47 55 57 56 54 50 51 51 45 41 42 42 41 39 38 39 37 33 34 36 37 38 36 37 51 64 65 64 67 66 66 67 66 68 67 63 62 65 66 65 63 62
89 79 72 69 68 69 68 68 68 69 69 67 68 70 72 79 88 89 86 86 84 82 80 78 74 69 62 59 60 59 55 55 58 59 59 59 58 58 58 55 52 52 49 46 46 46 48 53 55 56 58 58 57 56 48 44 47 47 46 46 45 46 46 42 42 45 42 37 41 49 52 56 62 66 67 68 69 68 67 69 68 64 63 67 68 67 66 65
82 76 70 69 70 69 68 70 71 73 71 69 73 79 84 90 93 91 89 85 82 84 87 85 78 69 64 62 62 62 58 59 63 62 59 59 59 58 58 54 53 53 49 46 49 48 48 53 54 54 60 62 59 58 54 49 50 52 52 52 52 50 50 49 49 50 46 41 48 55 54 53 60 64 66 70 72 71 71 72 70 67 66 69 70 69 68 69
78 72 69 74 79 75 74 77 77 77 76 77 84 90 90 92 91 90 89 86 84 84 87 88 78 67 65 65 63 62 58 57 62 62 60 62 62 58 56 55 53 52 50 50 51 49 49 57 59 57 62 68 65 62 61 56 53 54 55 55 55 54 52 51 50 48 48 50 54 57 57 59 61 61 65 72 75 76 76 76 74 72 71 72 72 70 71 72
77 74 75 82 83 79 82 85 82 83 85 86 90 91 88 89 90 87 84 85 87 84 84 86 78 68 68 64 59 60 59 58 60 61 61 63 62 58 56 54 53 53 54 54 52 49 51 59 63 61 66 74 73 65 63 62 58 58 60 59 59 59 58 57 57 55 55 58 58 57 60 64 63 62 67 75 78 79 79 78 78 77 78 77 75 74 75 75
78 82 86 88 84 80 84 86 85 88 89 88 91 90 87 87 85 83 82 81 82 82 82 82 76 70 68 61 57 61 63 62 60 58 61 64 61 58 55 52 51 53 56 56 53 50 51 59 66 64 67 78 77 69 66 65 61 62 67 68 65 64 64 63 62 60 59 60 61 57 59 64 64 65 71 78 81 80 80 79 79 80 81 80 78 77 77 76
81 88 92 90 87 82 82 85 86 88 86 85 87 86 84 82 79 80 82 79 78 81 82 81 75 71 69 66 66 68 65 63 62 62 66 68 63 57 55 53 52 53 55 55 54 51 50 57 62 61 67 79 78 71 71 66 61 67 74 75 72 70 68 67 65 63 62 62 62 59 59 63 65 66 73 80 83 83 82 82 81 80 80 80 79 78 78 77